Content
SEND FEEDBACK

Daily
Averages
Monthly
Summary
United Kingdom

LEUCHARS, SCOTLAND


Home > Europe > United Kingdom > Scotland
Elevation: 39 feet     Latitude: 56 23N     Longitude: 002 52W

WEATHER
 
SELECT A DAY
Number of Records: 177,155;   Date Range: 7/1/96 - 7/23/14
 
SHARE

PRINT THIS DATA

[ ← Previous Day ]
WEATHER ALMANAC - APRIL 8, 2013
[ Next Day → ]
[ °C ]   °F
Weather ElementAverageHighLow
Temperature38.6 °F41 °F (11:50 am)37 °F (3:50 am)
Dewpoint27.9 °F32 °F (12:50 am)24.8 °F (5:50 pm)
Humidity63.4 %81 % (12:50 am)48 % (6:50 pm)
Barometer29.89 in30.01 in (12:50 am)29.77 in (11:50 pm)
Wind Speed13.8 mph17.3 mph (5:50 pm)
Weather ElementAverage
Visibility10 mi
Wind DirectionESE (116.8 °)

Weather ElementTotal
Precipitation---
Heating Degree Days26 (Base 65)
Averaged from 31 records on April 8, 2013
WEATHER CONDITIONS BREAKOUT
WIND DIRECTION BREAKOUT
WEATHER BY HOUR - APRIL 8, 2013
[ °C ]   °F
Local TimeTemperatureDewpointHumidityBarometerVisibilityWind DirectionWind SpeedGust SpeedPrecipitationEventsConditions
12:50 AM37.4 °F32.0 °F81 %30.01 in6.2 miEast (100°)13.8 mphRainLight Rain
1:50 AM37.4 °F30.2 °F75 %30.01 in6.2 miESE (120°)11.5 mphRainLight Rain
2:50 AM37.4 °F30.2 °F75 %29.98 in6.2 miESE (120°)13.8 mphRainLight Rain
3:50 AM37.0 °F28.0 °F59 %29.98 in19.0 miESE (120°)11.5 mphRainLight Rain
3:50 AM37.4 °F28.4 °F70 %29.95 in6.2 miESE (120°)11.5 mphOvercast
4:50 AM37.4 °F28.4 °F70 %29.95 in6.2 miESE (110°)11.5 mphRainLight Rain
5:50 AM37.4 °F28.4 °F70 %29.95 in6.2 miESE (110°)12.7 mphRainLight Rain
6:50 AM37.4 °F28.4 °F70 %29.95 in6.2 miESE (120°)11.5 mphRainLight Rain
6:50 AM37.0 °F29.0 °F62 %29.95 in12.0 miESE (120°)11.5 mphRainLight Rain
7:50 AM37.4 °F30.2 °F75 %29.92 in6.2 miSE (140°)11.5 mphRain-SnowLight Rain
8:50 AM39.2 °F30.2 °F70 %29.92 in6.2 miESE (120°)11.5 mphMostly Cloudy
9:50 AM39.0 °F28.0 °F54 %29.93 in28.0 miESE (120°)15.0 mphPartly Cloudy
9:50 AM39.2 °F28.4 °F65 %29.92 in6.2 miESE (120°)15.0 mphScattered Clouds
10:50 AM39.2 °F26.6 °F61 %29.92 in6.2 miESE (110°)13.8 mphScattered Clouds
11:50 AM41.0 °F30.2 °F65 %29.89 in6.2 miESE (110°)15.0 mphScattered Clouds
12:50 PM39.2 °F30.2 °F70 %29.89 in6.2 miEast (100°)15.0 mphRainLight Rain Showers
12:50 PM39.0 °F30.0 °F60 %29.90 in16.0 miEast (100°)15.0 mphRainLight Rain Showers
1:50 PM41.0 °F28.4 °F61 %29.86 in6.2 miESE (120°)13.8 mphMostly Cloudy
2:50 PM41.0 °F26.6 °F57 %29.86 in6.2 miESE (110°)15.0 mphScattered Clouds
3:50 PM40.0 °F28.0 °F52 %29.86 in31.0 miESE (120°)16.1 mphPartly Cloudy
3:50 PM39.2 °F28.4 °F65 %29.83 in6.2 miESE (120°)16.1 mphMostly Cloudy
4:50 PM41.0 °F26.6 °F57 %29.83 in6.2 miESE (110°)16.1 mphScattered Clouds
5:50 PM41.0 °F24.8 °F53 %29.80 in6.2 miESE (120°)17.3 mphMostly Cloudy
6:50 PM39.2 °F26.6 °F61 %29.80 in6.2 miESE (120°)15.0 mphMostly Cloudy
6:50 PM39.0 °F26.0 °F48 %29.82 in31.0 miESE (120°)15.0 mphPartly Cloudy
7:50 PM37.4 °F26.6 °F65 %29.80 in6.2 miESE (110°)15.0 mphScattered Clouds
8:50 PM37.4 °F26.6 °F65 %29.80 in6.2 miESE (120°)13.8 mphMostly Cloudy
9:50 PM38.0 °F26.0 °F49 %29.81 in25.0 miESE (120°)13.8 mphScattered Clouds
9:50 PM37.4 °F24.8 °F60 %29.80 in6.2 miESE (120°)13.8 mphMostly Cloudy
10:50 PM37.4 °F24.8 °F60 %29.80 in6.2 miESE (120°)13.8 mphMostly Cloudy
11:50 PM37.4 °F24.8 °F60 %29.77 in6.2 miSE (130°)12.7 mphMostly Cloudy
Hourly data recorded from EGQL, located miles away from Leuchars, Scotland







STORIES FROM OUR PARTNERS